Andilly, France

8:37 AM CEST on April 29, 2017 (GMT +0200)
Andilly

Weather History for 07150 - October, 2013

Change the Weather History Date:

Wednesday, October 23, 2013

  Actual Average Record
Temperature  
Mean Temperature 64 °F -  
Max Temperature 68 °F 52 °F - ()
Min Temperature 59 °F 41 °F - ()
Degree Days  
Heating Degree Days 2    
Growing Degree Days 14 (Base 50)    
Moisture  
Dew Point 55 °F    
Average Humidity 72    
Maximum Humidity 88    
Minimum Humidity 52    
Precipitation  
Precipitation 0.00 in 0.07 in - ()
Sea Level Pressure  
Sea Level Pressure 29.69 in    
Wind  
Wind Speed 11 mph ()    
Max Wind Speed 20 mph    
Max Gust Speed 31 mph    
Visibility 6.2 miles    
Events      
T = Trace of Precipitation, MM = Missing Value Source: Averaged Metar Reports

Daily Weather History Graph

Daily Weather History Graph

Search for Another Location

Airport or City:

Trip Planner

Search our weather history database for the weather conditions in past years. The results will help you decide how hot, cold, wet, or windy it might be!

Date:

Astronomy

Oct. 23, 2013 Rise Set
Actual Time 8:23 AM CEST 6:45 PM CEST
Civil Twilight 7:50 AM CEST 7:17 PM CEST
Nautical Twilight 7:13 AM CEST 7:54 PM CEST
Astronomical Twilight 6:37 AM CEST 8:30 PM CEST
Moon 9:49 PM CEST (10/23) 12:41 PM CEST (10/23)
Length of Visible Light 11h 26m
Length of Day
10h 21m
Waning Gibbous, 81% of the Moon is Illuminated
Oct 23
Waning Gibbous
Oct 27
Last Quarter
Nov 3
New
Nov 10
First Quarter
Nov 17
Full

Hourly Weather History & Observations

Time (CEST) Temp. Dew Point Humidity Pressure Visibility Wind Dir Wind Speed Gust Speed Precip Events Conditions
12:00 AM 62.6 °F 59.0 °F 88% 29.56 in 6.2 mi South 9.2 mph - N/A   Unknown
12:30 AM 62.6 °F 57.2 °F 82% 29.56 in 6.2 mi South 9.2 mph - N/A   Unknown
1:00 AM 62.6 °F 57.2 °F 82% 29.59 in 6.2 mi South 6.9 mph - N/A   Overcast
1:30 AM 62.6 °F 57.2 °F 82% 29.59 in 6.2 mi South 8.1 mph - N/A   Unknown
2:00 AM 62.6 °F 57.2 °F 82% 29.59 in 6.2 mi South 8.1 mph - N/A   Unknown
2:30 AM 62.6 °F 57.2 °F 82% 29.59 in 6.2 mi South 10.4 mph - N/A   Unknown
3:00 AM 62.6 °F 57.2 °F 82% 29.59 in 6.2 mi South 8.1 mph - N/A   Unknown
3:30 AM 62.6 °F 57.2 °F 82% 29.59 in 6.2 mi South 4.6 mph - N/A   Overcast
4:00 AM 62.6 °F 57.2 °F 82% 29.56 in 6.2 mi South 8.1 mph - N/A   Unknown
4:30 AM 62.6 °F 55.4 °F 77% 29.56 in 6.2 mi SSW 8.1 mph - N/A   Overcast
5:00 AM 64.4 °F 55.4 °F 73% 29.56 in 6.2 mi SSW 12.7 mph - N/A   Overcast
5:30 AM 62.6 °F 55.4 °F 77% 29.56 in 6.2 mi SSW 11.5 mph - N/A   Unknown
6:00 AM 62.6 °F 55.4 °F 77% 29.59 in 6.2 mi South 12.7 mph - N/A   Unknown
6:30 AM 62.6 °F 53.6 °F 72% 29.59 in 6.2 mi SSW 12.7 mph - N/A   Unknown
7:00 AM 62.6 °F 55.4 °F 77% 29.59 in 6.2 mi SSW 13.8 mph - N/A   Mostly Cloudy
7:30 AM 62.6 °F 53.6 °F 72% 29.59 in 6.2 mi SSW 17.3 mph - N/A   Mostly Cloudy
8:00 AM 62.6 °F 53.6 °F 72% 29.59 in 6.2 mi SSW 16.1 mph - N/A   Scattered Clouds
8:30 AM 62.6 °F 53.6 °F 72% 29.62 in 6.2 mi SSW 16.1 mph - N/A   Mostly Cloudy
9:00 AM 62.6 °F 53.6 °F 72% 29.62 in 6.2 mi SSW 18.4 mph 31.1 mph N/A   Overcast
9:30 AM 62.6 °F 53.6 °F 72% 29.65 in 6.2 mi SSW 18.4 mph - N/A   Mostly Cloudy
10:00 AM 62.6 °F 53.6 °F 72% 29.65 in 6.2 mi SSW 19.6 mph - N/A   Overcast
10:30 AM 62.6 °F 53.6 °F 72% 29.68 in 6.2 mi SW 17.3 mph - N/A   Mostly Cloudy
11:00 AM 62.6 °F 55.4 °F 77% 29.68 in 6.2 mi SW 15.0 mph - N/A   Scattered Clouds
11:30 AM 64.4 °F 53.6 °F 68% 29.68 in 6.2 mi SW 17.3 mph 28.8 mph N/A   Mostly Cloudy
12:00 PM 64.4 °F 53.6 °F 68% 29.71 in 6.2 mi SW 17.3 mph - N/A   Mostly Cloudy
12:30 PM 66.2 °F 53.6 °F 64% 29.71 in 6.2 mi SW 19.6 mph - N/A   Mostly Cloudy
1:00 PM 66.2 °F 53.6 °F 64% 29.71 in 6.2 mi SW 19.6 mph - N/A   Overcast
1:30 PM 66.2 °F 55.4 °F 68% 29.71 in 6.2 mi SW 16.1 mph - N/A   Mostly Cloudy
2:00 PM 68.0 °F 53.6 °F 60% 29.71 in 6.2 mi SW 18.4 mph - N/A   Mostly Cloudy
2:30 PM 68.0 °F 53.6 °F 60% 29.74 in 6.2 mi SW 17.3 mph - N/A   Mostly Cloudy
3:00 PM 66.2 °F 51.8 °F 60% 29.74 in 6.2 mi SW 19.6 mph - N/A   Mostly Cloudy
3:30 PM 68.0 °F 50.0 °F 52% 29.74 in 6.2 mi SW 19.6 mph - N/A   Scattered Clouds
4:00 PM 68.0 °F 51.8 °F 56% 29.74 in 6.2 mi SW 15.0 mph - N/A   Unknown
4:30 PM 66.2 °F 53.6 °F 64% 29.74 in 6.2 mi SW 19.6 mph - N/A   Unknown
5:00 PM 66.2 °F 53.6 °F 64% 29.77 in 6.2 mi WSW 17.3 mph - N/A   Partly Cloudy
5:30 PM 66.2 °F 53.6 °F 64% 29.77 in 6.2 mi SW 12.7 mph - N/A   Mostly Cloudy
6:00 PM 64.4 °F 55.4 °F 73% 29.77 in 6.2 mi WSW 8.1 mph - N/A   Mostly Cloudy
6:30 PM 62.6 °F 53.6 °F 72% 29.80 in 6.2 mi WSW 6.9 mph - N/A   Mostly Cloudy
7:00 PM 64.4 °F 53.6 °F 68% 29.80 in 6.2 mi SW 10.4 mph - N/A   Overcast
7:30 PM 62.6 °F 53.6 °F 72% 29.83 in 6.2 mi SW 10.4 mph - N/A   Scattered Clouds
8:00 PM 64.4 °F 53.6 °F 68% 29.83 in 6.2 mi SW 12.7 mph - N/A   Unknown
8:30 PM 64.4 °F 53.6 °F 68% 29.86 in 6.2 mi SSW 9.2 mph - N/A   Unknown
9:00 PM 62.6 °F 53.6 °F 72% 29.86 in 6.2 mi SSW 9.2 mph - N/A   Overcast
9:30 PM 62.6 °F 53.6 °F 72% 29.86 in 6.2 mi SW 6.9 mph - N/A   Overcast
10:00 PM 62.6 °F 55.4 °F 77% 29.86 in 6.2 mi Variable 3.5 mph - N/A   Mostly Cloudy
10:30 PM 62.6 °F 55.4 °F 77% 29.89 in 6.2 mi West 6.9 mph - N/A   Mostly Cloudy
11:00 PM 59.0 °F 55.4 °F 88% 29.89 in 6.2 mi Variable 3.5 mph - N/A   Mostly Cloudy
11:30 PM 60.8 °F 55.4 °F 82% 29.89 in 6.2 mi SW 5.8 mph - N/A   Mostly Cloudy